Погода в Североморске

Россия / Мурманская область     69°04′34″N   33°24′58″E
темп.,
°C
ветер,
м/с
пор.,
м/с
влажн.,
%
обл.,
%
осадки,
мм/ч
давл.,
гПа
погр.,
м
20 января, ср
ср2000:00−11св228491 0.1 101321
03:00−11ссз119495 0.1 101421
06:00−9с1196100 0.8 101421
09:00−10ссв119799 1.2 101621
12:00−10св1196100 0.6 101721
15:00−12всв0197100 0.8 101721
18:00−12ссз1198100 0.3 101720
21:00−14с019998 0.4 101820
21 января, чт
чт2100:00−13з0097100 0.3 101821
03:00−13зсз1198100 0.5 101820
06:00−14зюз1198100 0.3 101720
09:00−14зюз1197100 0.4 101820
12:00−15зюз119898 0.2 101820
15:00−15з119899 0.3 101820
18:00−14с0097100 0.4 101820
21:00−18ююв119986 0.5 101820
22 января, пт
пт2200:00−18в129865 0.0 101720
03:00−19юв338782 0.0 101822
06:00−20юв598780 0.0 1017146
09:00−20юв7158690 0.0 1016317
12:00−21юв71685100 0.0 1016318
15:00−20юв81684100 0.0 1016336
18:00−19юв91685100 0.0 1015337
21:00−19юв91683100 0.0 1015335
23 января, сб
сб2300:00−19юв71584100 0.0 1014305
03:00−20юв6128695 0.0 1014220
06:00−21юв612859 0.0 1013212
09:00−21юв6148725 0.0 1011246
12:00−19вюв91685100 0.0 1010336
15:00−17вюв101685100 0.0 1009411
18:00−16юв101692100 0.6 1007533
21:00−16юв91493100 2.0 1006589
24 января, вс
вс2400:00−16юв71387100 0.3 1006450
03:00−20юв589091 0.3 1006136
06:00−21юв339277 0.0 100545
09:00−18юв239188 0.0 1006112
12:00−17юв2392100 0.0 100685
15:00−16юв2395100 0.2 100763
18:00−16юв229399 0.1 100724
21:00−14ююв229499 0.3 100734